Location: Lac Lasalle
(46.0398°N, 74.1576°W)
Time: 00:03:59
(UTC-05:00)

ISS - Pass Details

Date: 28 October 2019
Orbit: 412 x 421 km, 51.6° (Epoch: 13 November)

Event Time Altitude Azimuth Distance (km) Brightness Sun altitude
Exits shadow 05:22:47 37° 140° (SE) 673 -2.5 -22.8°
Drops below altitude 10° 05:25:53 10° 74° (ENE) 1,506 0.1 -22.3°
Sets 05:28:04 0° 66° (ENE) 2,372 1.3 -21.9°
